Massena, NY

7:35 AM EST on December 08, 2016 (GMT -0500)
Massena International-Richards

Weather History for KMSS - June, 2013

Change the Weather History Date:

Tuesday, June 18, 2013

  Actual Average Record
Temperature  
Mean Temperature 56 °F 65 °F  
Max Temperature 70 °F 76 °F 97 °F (1994)
Min Temperature 42 °F 54 °F 39 °F (1956)
Degree Days  
Heating Degree Days 9 3  
Month to date heating degree days 75  
Since 1 June heating degree days 75  
Since 1 July heating degree days 8176  
Cooling Degree Days 0 3  
Month to date cooling degree days 21 32  
Year to date cooling degree days 44 46  
Since 1 June cooling degree days 21 32  
Growing Degree Days 6 (Base 50)    
Moisture  
Dew Point 45 °F    
Average Humidity 69    
Maximum Humidity 100    
Minimum Humidity 37    
Precipitation  
Precipitation 0.00 in 0.12 in 1.75 in (1990)
Month to date precipitation 5.64 2.11  
Year to date precipitation 13.94 14.04  
Sea Level Pressure  
Sea Level Pressure 29.98 in    
Wind  
Wind Speed 4 mph (NW)    
Max Wind Speed 13 mph    
Max Gust Speed 18 mph    
Visibility 6 miles    
Events Fog    
T = Trace of Precipitation, MM = Missing Value Source: NWS Daily Summary

Daily Weather History Graph

Daily Weather History Graph

Search for Another Location

Airport or City:

Trip Planner

Search our weather history database for the weather conditions in past years. The results will help you decide how hot, cold, wet, or windy it might be!

Date:

Astronomy

Jun. 18, 2013 Rise Set
Actual Time 5:12 AM EDT 8:48 PM EDT
Civil Twilight 4:35 AM EDT 9:26 PM EDT
Nautical Twilight 3:45 AM EDT 10:15 PM EDT
Astronomical Twilight 2:39 AM EDT 11:21 PM EDT
Moon 3:20 PM EDT (6/18) 1:31 AM EDT (6/18)
Length of Visible Light 16h 51m
Length of Day
15h 36m
Waxing Gibbous, 70% of the Moon is Illuminated
Jun 18
Waxing Gibbous
Jun 23
Full
Jun 30
Last Quarter
Jul 8
New
Jul 15
First Quarter

Hourly Weather History & Observations

Time (EDT) Temp. Windchill Dew Point Humidity Pressure Visibility Wind Dir Wind Speed Gust Speed Precip Events Conditions
12:34 AM 46.4 °F - 46.4 °F 100% 29.97 in 1.8 mi Calm Calm - N/A   Clear
12:37 AM 46.4 °F - 46.4 °F 100% 29.97 in 0.8 mi Calm Calm - N/A   Clear
12:47 AM 46.4 °F - 46.4 °F 100% 29.97 in 1.5 mi Calm Calm - N/A   Clear
12:49 AM 46.4 °F - 46.4 °F 100% 29.96 in 3.0 mi Calm Calm - N/A   Clear
12:53 AM 46.9 °F - 45.0 °F 93% 29.97 in 2.5 mi Calm Calm - N/A   Clear
1:00 AM 48.2 °F - 46.4 °F 93% 29.96 in 1.2 mi Calm Calm - N/A   Clear
1:04 AM 46.4 °F - 44.6 °F 93% 29.96 in 2.0 mi Calm Calm - N/A   Clear
1:17 AM 46.4 °F - 44.6 °F 93% 29.96 in 4.0 mi Calm Calm - N/A   Clear
1:25 AM 44.6 °F - 42.8 °F 93% 29.96 in 1.2 mi Calm Calm - N/A   Clear
1:36 AM 44.6 °F - 42.8 °F 93% 29.95 in 3.0 mi Calm Calm - N/A   Clear
1:42 AM 44.6 °F - 44.6 °F 100% 29.96 in 1.5 mi Calm Calm - N/A   Clear
1:47 AM 44.6 °F - 44.6 °F 100% 29.96 in 0.8 mi Calm Calm - N/A   Mist
1:53 AM 44.1 °F - 43.0 °F 96% 29.96 in 0.5 mi Calm Calm - N/A Fog Fog
2:05 AM 44.6 °F - 44.6 °F 100% 29.95 in 1.2 mi Calm Calm - N/A   Partly Cloudy
2:07 AM 44.6 °F - 44.6 °F 100% 29.95 in 4.0 mi Calm Calm - N/A   Partly Cloudy
2:21 AM 46.4 °F - 44.6 °F 93% 29.96 in 1.0 mi Calm Calm - N/A   Mist
2:28 AM 44.6 °F - 42.8 °F 93% 29.96 in 0.5 mi Calm Calm - N/A Fog Fog
2:32 AM 44.6 °F - 44.6 °F 100% 29.96 in 1.8 mi Calm Calm - N/A   Partly Cloudy
2:38 AM 42.8 °F 41.1 °F 42.8 °F 100% 29.96 in 0.8 mi SSW 3.5 mph - N/A   Mist
2:53 AM 43.0 °F - 42.1 °F 97% 29.97 in 3.0 mi Calm Calm - N/A   Partly Cloudy
3:13 AM 44.6 °F - 42.8 °F 93% 29.96 in 2.0 mi Calm Calm - N/A   Clear
3:15 AM 42.8 °F - 42.8 °F 100% 29.96 in 1.2 mi Calm Calm - N/A   Partly Cloudy
3:22 AM 44.6 °F - 44.6 °F 100% 29.96 in 2.0 mi Calm Calm - N/A   Partly Cloudy
3:30 AM 44.6 °F - 44.6 °F 100% 29.96 in 4.0 mi Calm Calm - N/A   Partly Cloudy
3:35 AM 44.6 °F - 42.8 °F 93% 29.95 in 1.8 mi Calm Calm - N/A   Partly Cloudy
3:49 AM 44.6 °F - 42.8 °F 93% 29.95 in 3.0 mi Calm Calm - N/A   Clear
3:53 AM 43.0 °F - 42.1 °F 97% 29.95 in 9.0 mi Calm Calm - N/A   Clear
4:53 AM 46.9 °F - 45.0 °F 93% 29.97 in 10.0 mi Calm Calm - N/A   Overcast
5:53 AM 48.0 °F - 46.9 °F 96% 29.98 in 10.0 mi Calm Calm - N/A   Scattered Clouds
6:53 AM 50.0 °F - 48.0 °F 93% 29.98 in 10.0 mi Calm Calm - N/A   Partly Cloudy
7:53 AM 52.0 °F - 50.0 °F 93% 30.01 in 10.0 mi SSW 3.5 mph - N/A   Partly Cloudy
8:53 AM 54.0 °F - 52.0 °F 93% 30.01 in 10.0 mi SSW 3.5 mph - N/A   Scattered Clouds
9:53 AM 55.9 °F - 53.1 °F 90% 30.01 in 10.0 mi Calm Calm - N/A   Clear
10:53 AM 62.1 °F - 51.1 °F 67% 30.01 in 10.0 mi Calm Calm - N/A   Clear
11:53 AM 66.0 °F - 45.0 °F 47% 30.00 in 10.0 mi North 4.6 mph - N/A   Clear
12:53 PM 66.9 °F - 46.9 °F 49% 30.00 in 10.0 mi Variable 3.5 mph - N/A   Clear
1:53 PM 68.0 °F - 46.0 °F 45% 29.99 in 10.0 mi Variable 3.5 mph - N/A   Partly Cloudy
2:53 PM 70.0 °F - 46.9 °F 44% 29.98 in 10.0 mi West 8.1 mph - N/A   Mostly Cloudy
3:53 PM 68.0 °F - 46.0 °F 45% 29.97 in 10.0 mi NNW 6.9 mph - N/A   Mostly Cloudy
4:53 PM 66.9 °F - 44.1 °F 44% 29.96 in 10.0 mi NW 8.1 mph - N/A   Mostly Cloudy
5:53 PM 70.0 °F - 42.1 °F 36% 29.96 in 10.0 mi NNW 8.1 mph - N/A   Clear
6:44 PM 68.0 °F - 44.6 °F 43% 29.97 in 10.0 mi NNW 6.9 mph - N/A   Partly Cloudy
6:53 PM 66.9 °F - 44.1 °F 44% 29.98 in 10.0 mi NW 9.2 mph - N/A   Clear
7:53 PM 64.9 °F - 42.1 °F 43% 29.99 in 10.0 mi NNW 5.8 mph - N/A   Clear
8:53 PM 60.1 °F - 42.1 °F 51% 30.01 in 10.0 mi NNW 4.6 mph - N/A   Clear
9:53 PM 55.9 °F - 43.0 °F 62% 30.03 in 10.0 mi NNW 3.5 mph - N/A   Clear
10:53 PM 57.0 °F - 37.0 °F 47% 30.04 in 10.0 mi North 8.1 mph - N/A   Clear
11:53 PM 55.9 °F - 37.0 °F 49% 30.05 in 10.0 mi North 8.1 mph - N/A   Clear